| time (UTC) | temp C | wind direction | speed KPH | gust KPH | rain 1hr cm | rain 24hr cm | rain mn cm | humidity % | barometer mb |
| 20260507201604 | 17 | 271 | 14.5 | 25.7 | 0.00 | 0.00 | 0.00 | 38 | 1013.8 |
| 20260507200048 | 16 | 202 | 14.5 | 27.4 | 0.00 | 0.00 | 0.00 | 40 | 1014.1 |
| 20260507194551 | 16 | 233 | 16.1 | 27.4 | 0.00 | 0.00 | 0.00 | 41 | 1014.4 |
| 20260507193051 | 15 | 263 | 9.7 | 27.4 | 0.00 | 0.00 | 0.00 | 41 | 1014.6 |
| 20260507191559 | 15 | 234 | 8.0 | 24.1 | 0.00 | 0.00 | 0.00 | 44 | 1014.8 |
| 20260507190044 | 13 | 230 | 8.0 | 22.5 | 0.00 | 0.00 | 0.00 | 45 | 1014.8 |
| 20260507184547 | 13 | 210 | 14.5 | 25.7 | 0.00 | 0.00 | 0.00 | 46 | 1015.1 |
| 20260507183053 | 13 | 215 | 12.9 | 27.4 | 0.00 | 0.00 | 0.00 | 44 | 1015.3 |
| 20260507181556 | 13 | 245 | 14.5 | 25.7 | 0.00 | 0.00 | 0.00 | 43 | 1015.5 |
| 20260507180055 | 13 | 248 | 11.3 | 25.7 | 0.00 | 0.00 | 0.00 | 44 | 1015.6 |
| 20260507174603 | 12 | 252 | 4.8 | 19.3 | 0.00 | 0.00 | 0.00 | 44 | 1015.8 |
| 20260507173105 | 12 | 195 | 9.7 | 29.0 | 0.00 | 0.00 | 0.00 | 45 | 1015.9 |
| 20260507171549 | 12 | 248 | 14.5 | 33.8 | 0.00 | 0.00 | 0.00 | 45 | 1015.8 |
| 20260507170111 | 12 | 240 | 11.3 | 33.8 | 0.00 | 0.00 | 0.00 | 47 | 1015.8 |
| 20260507164556 | 11 | 221 | 14.5 | 33.8 | 0.00 | 0.00 | 0.00 | 47 | 1015.8 |
| 20260507163058 | 11 | 269 | 12.9 | 20.9 | 0.00 | 0.00 | 0.00 | 47 | 1015.9 |
| 20260507161601 | 11 | 275 | 1.6 | 12.9 | 0.00 | 0.00 | 0.00 | 50 | 1016.0 |
| 20260507160046 | 10 | 271 | 3.2 | 12.9 | 0.00 | 0.00 | 0.00 | 50 | 1015.8 |
| 20260507154546 | 10 | 277 | 1.6 | 11.3 | 0.00 | 0.00 | 0.00 | 51 | 1016.1 |
| 20260507153051 | 10 | 252 | 4.8 | 19.3 | 0.00 | 0.00 | 0.00 | 49 | 1016.5 |
| 20260507151559 | 10 | 268 | 3.2 | 14.5 | 0.00 | 0.00 | 0.00 | 49 | 1016.6 |
| 20260507150120 | 10 | 253 | 11.3 | 20.9 | 0.00 | 0.00 | 0.00 | 50 | 1016.6 |
| 20260507144548 | 9 | 278 | 11.3 | 27.4 | 0.00 | 0.00 | 0.00 | 50 | 1016.4 |
| 20260507143058 | 8 | 266 | 17.7 | 35.4 | 0.00 | 0.00 | 0.00 | 50 | 1016.3 |
| 20260507141545 | 8 | 266 | 17.7 | 35.4 | 0.00 | 0.00 | 0.00 | 51 | 1016.0 |
| 20260507140112 | 7 | 280 | 20.9 | 37.0 | 0.00 | 0.00 | 0.00 | 52 | 1015.9 |
| 20260507134616 | 7 | 225 | 9.7 | 30.6 | 0.00 | 0.00 | 0.00 | 54 | 1015.6 |
| 20260507133106 | 7 | 261 | 12.9 | 30.6 | 0.00 | 0.00 | 0.00 | 54 | 1015.4 |
| 20260507131550 | 7 | 257 | 11.3 | 30.6 | 0.00 | 0.00 | 0.00 | 55 | 1015.4 |
| 20260507130056 | 7 | 284 | 19.3 | 37.0 | 0.00 | 0.00 | 0.00 | 54 | 1015.2 |
| 20260507124548 | 7 | 223 | 12.9 | 30.6 | 0.00 | 0.00 | 0.00 | 54 | 1015.1 |
| 20260507123052 | 6 | 304 | 16.1 | 37.0 | 0.00 | 0.00 | 0.00 | 54 | 1015.0 |
| 20260507114541 | 6 | 257 | 16.1 | 33.8 | 0.00 | 0.00 | 0.00 | 55 | 1014.8 |
| 20260507113050 | 6 | 248 | 9.7 | 27.4 | 0.00 | 0.00 | 0.00 | 55 | 1014.8 |
| 20260507111559 | 6 | 225 | 17.7 | 38.6 | 0.00 | 0.00 | 0.00 | 55 | 1014.5 |
| 20260507110047 | 6 | 242 | 16.1 | 32.2 | 0.00 | 0.00 | 0.00 | 54 | 1014.6 |
| 20260507104551 | 6 | 234 | 14.5 | 38.6 | 0.00 | 0.00 | 0.00 | 54 | 1014.6 |
| 20260507103122 | 6 | 233 | 20.9 | 40.2 | 0.00 | 0.00 | 0.00 | 54 | 1014.4 |
| 20260507101547 | 6 | 248 | 17.7 | 35.4 | 0.00 | 0.00 | 0.00 | 54 | 1014.6 |
| 20260507100052 | 6 | 246 | 17.7 | 38.6 | 0.00 | 0.00 | 0.00 | 53 | 1014.6 |
| 20260507094544 | 6 | 233 | 17.7 | 41.8 | 0.00 | 0.00 | 0.00 | 53 | 1014.7 |
| 20260507093051 | 6 | 252 | 12.9 | 29.0 | 0.00 | 0.00 | 0.00 | 54 | 1014.8 |
| 20260507090059 | 6 | 223 | 19.3 | 37.0 | 0.00 | 0.00 | 0.00 | 53 | 1014.8 |
| 20260507083045 | 6 | 204 | 16.1 | 40.2 | 0.00 | 0.00 | 0.00 | 54 | 1014.7 |
| 20260507081555 | 5 | 259 | 19.3 | 40.2 | 0.00 | 0.00 | 0.00 | 54 | 1014.8 |
| 20260507080042 | 5 | 282 | 16.1 | 43.5 | 0.00 | 0.00 | 0.00 | 53 | 1014.8 |
| 20260507074549 | 5 | 241 | 16.1 | 32.2 | 0.00 | 0.00 | 0.00 | 52 | 1014.9 |
| 20260507073059 | 5 | 209 | 17.7 | 32.2 | 0.00 | 0.00 | 0.00 | 52 | 1014.9 |
| 20260507071546 | 5 | 257 | 20.9 | 43.5 | 0.00 | 0.00 | 0.00 | 53 | 1015.0 |
| 20260507070112 | 5 | 269 | 11.3 | 30.6 | 0.00 | 0.00 | 0.00 | 55 | 1015.2 |
| 20260507064601 | 5 | 310 | 11.3 | 30.6 | 0.00 | 0.00 | 0.00 | 55 | 1015.2 |
| 20260507063047 | 4 | 263 | 6.4 | 30.6 | 0.00 | 0.00 | 0.00 | 58 | 1015.5 |
| 20260507061611 | 3 | 225 | 9.7 | 25.7 | 0.00 | 0.00 | 0.00 | 62 | 1015.8 |
| 20260507060042 | 0 | 209 | 1.6 | 4.8 | 0.00 | 0.00 | 0.00 | 81 | 1015.9 |
| 20260507054549 | 0 | 207 | 0.0 | 12.9 | 0.00 | 0.00 | 0.00 | 82 | 1016.1 |
| 20260507053054 | 0 | 189 | 6.4 | 19.3 | 0.00 | 0.00 | 0.00 | 81 | 1016.2 |
| 20260507051543 | 0 | 194 | 11.3 | 19.3 | 0.00 | 0.00 | 0.00 | 82 | 1016.2 |
| 20260507050050 | 0 | 238 | 9.7 | 22.5 | 0.00 | 0.00 | 0.00 | 81 | 1016.3 |
| 20260507044617 | 0 | 201 | 4.8 | 20.9 | 0.00 | 0.00 | 0.00 | 81 | 1016.2 |
| 20260507043048 | 0 | 251 | 9.7 | 19.3 | 0.00 | 0.00 | 0.00 | 81 | 1016.2 |
| 20260507041552 | 0 | 223 | 11.3 | 29.0 | 0.00 | 0.00 | 0.00 | 80 | 1016.1 |
| 20260507040054 | 1 | 213 | 9.7 | 20.9 | 0.00 | 0.00 | 0.00 | 79 | 1016.3 |
| 20260507034600 | 1 | 238 | 6.4 | 17.7 | 0.00 | 0.00 | 0.00 | 79 | 1016.4 |
| 20260507033104 | 1 | 169 | 3.2 | 19.3 | 0.00 | 0.00 | 0.00 | 78 | 1016.4 |
| 20260507031544 | 1 | 210 | 4.8 | 17.7 | 0.00 | 0.00 | 0.00 | 78 | 1016.6 |
| 20260507030049 | 1 | 227 | 9.7 | 16.1 | 0.00 | 0.00 | 0.00 | 78 | 1016.6 |
| 20260507024601 | 1 | 198 | 6.4 | 16.1 | 0.00 | 0.00 | 0.00 | 77 | 1016.5 |
| 20260507023045 | 1 | 229 | 3.2 | 17.7 | 0.00 | 0.00 | 0.00 | 77 | 1016.4 |
| 20260507021552 | 1 | 224 | 3.2 | 24.1 | 0.00 | 0.00 | 0.00 | 76 | 1016.5 |
| 20260507020042 | 1 | 222 | 4.8 | 19.3 | 0.00 | 0.00 | 0.00 | 75 | 1016.6 |
| 20260507014547 | 1 | 213 | 526.3 | 526.3 | 0.00 | 0.00 | 0.00 | 74 | 1016.4 |
| 20260507013056 | 2 | 180 | 6.4 | 16.1 | 0.00 | 0.00 | 0.00 | 73 | 1016.8 |
| 20260507011546 | 2 | 208 | 8.0 | 17.7 | 0.00 | 0.00 | 0.00 | 71 | 1016.9 |
| 20260507010054 | 3 | 156 | 6.4 | 16.1 | 0.00 | 0.00 | 0.00 | 69 | 1016.9 |
| 20260507004545 | 3 | 198 | 8.0 | 20.9 | 0.00 | 0.00 | 0.00 | 69 | 1016.9 |
| 20260507003049 | 3 | 176 | 6.4 | 24.1 | 0.00 | 0.00 | 0.00 | 68 | 1016.9 |
| 20260507001555 | 3 | 211 | 6.4 | 24.1 | 0.00 | 0.00 | 0.00 | 67 | 1016.9 |
| 20260507000043 | 3 | 171 | 9.7 | 20.9 | 0.00 | 0.00 | 0.00 | 65 | 1017.1 |
| 20260506234552 | 3 | 237 | 9.7 | 19.3 | 0.00 | 0.03 | 0.00 | 66 | 1017.2 |
| 20260506233057 | 3 | 167 | 16.1 | 24.1 | 0.00 | 0.03 | 0.00 | 65 | 1017.4 |
| 20260506231623 | 3 | 218 | 12.9 | 19.3 | 0.00 | 0.03 | 0.00 | 64 | 1017.5 |
| 20260506230052 | 3 | 196 | 9.7 | 20.9 | 0.00 | 0.03 | 0.00 | 65 | 1017.4 |
| 20260506224555 | 3 | 194 | 12.9 | 22.5 | 0.00 | 0.08 | 0.00 | 65 | 1017.5 |
| 20260506223103 | 3 | 190 | 9.7 | 24.1 | 0.00 | 0.08 | 0.00 | 66 | 1017.6 |
| 20260506221550 | 3 | 196 | 526.3 | 526.3 | 0.00 | 0.00 | 0.00 | 66 | 1017.7 |
| 20260506220042 | 2 | 188 | 12.9 | 24.1 | 0.00 | 0.08 | 0.00 | 66 | 1017.9 |
| 20260506214549 | 2 | 166 | 9.7 | 20.9 | 0.00 | 0.13 | 0.00 | 67 | 1017.9 |
| 20260506213059 | 3 | 188 | 11.3 | 22.5 | 0.00 | 0.13 | 0.00 | 65 | 1018.2 |
| 20260506211545 | 2 | 161 | 8.0 | 17.7 | 0.00 | 0.13 | 0.00 | 64 | 1018.5 |
| 20260506210047 | 2 | 228 | 6.4 | 22.5 | 0.00 | 0.13 | 0.00 | 66 | 1018.6 |
| 20260506204557 | 2 | 198 | 11.3 | 20.9 | 0.00 | 0.38 | 0.00 | 62 | 1018.7 |
| 20260506203042 | 2 | 173 | 8.0 | 17.7 | 0.00 | 0.38 | 0.00 | 62 | 1018.9 |